This is the latest recevied weather packets stored in our database for station/object OE6PLD-13. If no packets are shown the sender has not sent any weather packets the latest 1 day(s).
| Time | Temp. | Humidity | Pressure | Rain* | Wind** | Luminosity | Snow |
|---|---|---|---|---|---|---|---|
| 1778052452 | 19.44° C | 62% | 1013.8 hPa | 0.76 mm | - | 649 W/m² | - |
| 1778052085 | 19.44° C | 62% | 1013.9 hPa | 0.76 mm | - | 586 W/m² | - |
| 1778051902 | 19.44° C | 61% | 1014.1 hPa | 0.76 mm | - | 558 W/m² | - |
| 1778051535 | 19.44° C | 61% | 1014 hPa | 0.76 mm | - | 428 W/m² | - |
| 1778051352 | 19.44° C | 61% | 1013.9 hPa | 0.76 mm | - | 396 W/m² | - |
| 1778050985 | 18.89° C | 62% | 1013.8 hPa | 0.76 mm | - | 418 W/m² | - |
| 1778050435 | 18.89° C | 63% | 1014.2 hPa | 0.76 mm | - | 398 W/m² | - |
| 1778050068 | 17.78° C | 67% | 1014.2 hPa | 0.76 mm | - | 367 W/m² | - |
| 1778049885 | 17.78° C | 68% | 1014.1 hPa | 0.76 mm | - | 345 W/m² | - |
| 1778049518 | 17.78° C | 68% | 1014.1 hPa | 0.76 mm | - | 346 W/m² | - |
| 1778049335 | 17.22° C | 69% | 1014 hPa | 0.76 mm | - | 354 W/m² | - |
| 1778048968 | 17.22° C | 70% | 1014 hPa | 0.76 mm | - | 340 W/m² | - |
| 1778048785 | 16.67° C | 69% | 1013.9 hPa | 0.76 mm | - | 327 W/m² | - |
| 1778048601 | 16.67° C | 69% | 1013.9 hPa | 0.76 mm | - | 338 W/m² | - |
| 1778048418 | 16.11° C | 70% | 1014.1 hPa | 0.76 mm | - | 332 W/m² | - |
| 1778048234 | 15.56° C | 73% | 1014.2 hPa | 0.76 mm | - | 307 W/m² | - |
| 1778048051 | 15.56° C | 73% | 1014 hPa | 0.76 mm | - | 280 W/m² | - |
| 1778047501 | 15.56° C | 73% | 1014 hPa | 0.76 mm | - | 244 W/m² | - |
| 1778046951 | 15° C | 74% | 1014 hPa | 0.76 mm | - | 253 W/m² | - |
| 1778046767 | 15° C | 75% | 1014.3 hPa | 0.76 mm | - | 258 W/m² | - |
| 1778046401 | 14.44° C | 76% | 1014.4 hPa | 0.76 mm | - | 216 W/m² | - |
| 1778046035 | 13.33° C | 79% | 1014.3 hPa | 0.76 mm | - | 180 W/m² | - |
| 1778045851 | 12.78° C | 80% | 1014.3 hPa | 0.76 mm | - | 139 W/m² | - |
| 1778045667 | 12.78° C | 81% | 1014.2 hPa | 0.76 mm | - | 71 W/m² | - |
| 1778045484 | 12.78° C | 82% | 1014.1 hPa | 0.76 mm | - | 90 W/m² | - |
* Rain latest hour (hover to see other rain measurements)
** Current wind speed in m/s (hover to see current wind gust speed)